Regional Weather Roundup
Issued by NWS Sioux Falls, SD

Home | Current Version | Previous Version | Text Only | Print | Product List | Glossary On
Versions: 1 2 3 4 5 6 7 8 9 10 11 12 13 14 15 16 17 18 19 20 21 22 23 24 25 26 27 28 29 30 31 32 33 34 35 36 37 38 39 40 41 42 43 44 45 46 47 48 49 50
000
ASUS43 KFSD 021510
RWRFSD

WEATHER ROUNDUP FOR SE SOUTH DAKOTA/SW MINNESOTA/NW IOWA
NATIONAL WEATHER SERVICE SIOUX FALLS SD
900 AM CST MON MAR 02 2015

NOTE: "FAIR" INDICATES FEW OR NO CLOUDS BELOW 12,000 FEET WITH NO
SIGNIFICANT WEATHER AND OR OBSTRUCTIONS TO VISIBILITY.


SDZ038>040-050-052>070-021600-
SOUTHEAST SOUTH DAKOTA

CITY           SKY/WX    TMP DP  RH WIND       PRES   REMARKS
CHAMBERLAIN    MOSUNNY   23  14  69 SE16      30.26F WCI   9
HURON          MOSUNNY   15  12  88 S12       30.35F WCI   2
MADISON        FAIR      10  10 100 S8        30.37F WCI  -1
MITCHELL       PTSUNNY   20  16  84 SE13      30.38F WCI   7
SIOUX FALLS    PTSUNNY   19  12  74 SE13      30.41F WCI   6
WINNER         CLOUDY    26   8  46 SE21      30.21F WCI  12
YANKTON        MOSUNNY   18  16  93 E6        30.43S WCI   9
$$

MNZ071-072-080-081-089-090-097-098-021600-
SOUTHWEST MINNESOTA

CITY           SKY/WX    TMP DP  RH WIND       PRES   REMARKS
FAIRMONT       MOSUNNY   12   7  79 SW5       30.47R WCI   4
JACKSON        MOSUNNY   14  10  85 S5        30.44S WCI   6
LUVERNE        MOSUNNY   12  10  92 CALM      30.44F FOG
MARSHALL       SUNNY     14   7  73 S6        30.45R WCI   5
MONTEVIDEO     SUNNY     18  12  79 SW6       30.45S WCI   9
PIPESTONE      SUNNY     12  10  92 S7        30.39S WCI   2
REDWOOD FALLS  SUNNY     12   8  84 S3        30.46R
TRACY          MOSUNNY   17   9  68 S7        30.43F WCI   8
WINDOM         MOSUNNY   10   9  92 CALM      30.44F
WORTHINGTON    MOSUNNY   14   7  73 S8        30.45R WCI   3
$$

IAZ001>003-012>014-020>022-031-032-NEZ013-014-SDZ071-021600-
NORTHWEST IOWA

CITY           SKY/WX    TMP DP  RH WIND       PRES   REMARKS
CHEROKEE       CLOUDY    10   9  95 CALM      30.48S
DENISON          N/A     19  18  93 E3        30.47R
ESTHERVILLE    SUNNY     12  10  92 S3        30.46R
LE MARS        CLOUDY    21  18  86 SE9       30.47S WCI  11
ORANGE CITY    MOSUNNY   19  14  79 CALM      30.44S
SHELDON        MOSUNNY   18  16  93 S13       30.44S WCI   4
SIOUX CITY     CLOUDY    21  16  81 SE9       30.46F WCI  11
SPENCER        SUNNY     14   9  80 S5        30.47R WCI   6
STORM LAKE     PTSUNNY   18  14  86 SE7       30.46F WCI   8
$$

ABBREVIATIONS USED IN REMARKS
   TC - TEMPERATURE IN CELSIUS
  WCI - WIND CHILL INDEX
   HX - HEAT INDEX
  VSB - VISIBILITY



USA.gov is the U.S. government's official web portal to all federal, state and local government web resources and services.